Погода во Фрайзинге

Германия     48°24′16″N   11°44′49″E
В апреле 2022 года жителям России запретили посещать сайт meteo.paraplan.net по решению Генеральной прокуратуры. Аудитория сайта уменьшилась в 10 раз. Владельцы сайта не видят смысла в поддержке погодного сервера в таких условиях. Сайт будет закрыт в октябре.
темп.,
°C
ветер,
м/с
пор.,
м/с
влажн.,
%
обл.,
%
осадки,
мм/ч
давл.,
гПа
погр.,
м
29 сентября, чт
чт2923:00+7юз4895100 0.6 1003333
02:00+6юз369698 0.7 1004161
05:00+7юз2594100 0.1 1003171
08:00+6юз1293100 0.3 100351
11:00+10юв1279100 0.0 1003564
14:00+13ююв2263100 0.1 10031183
17:00+12вюв2265100 0.1 1002854
20:00+10в2275100 0.3 100429
30 сентября, пт
пт3023:00+9з2293100 1.3 100747
02:00+9ю1292100 1.9 100833
05:00+8ю1292100 0.2 100848
08:00+9зюз1190100 0.2 101028
11:00+10зюз1185100 0.1 1012170
14:00+10ю1181100 0.1 1012396
17:00+12ююз1276100 0.0 1013617
20:00+8ю229189 0.1 101512
1 октября, сб
сб123:00+7ююв229322 0.0 101518
02:00+6ю22944 0.0 101631
05:00+5ююз33955 0.0 101545
08:00+6юз3692100 0.0 1015127
11:00+12юз51072100 0.0 1014625
14:00+14з71661100 0.0 10141506
17:00+10зюз101590100 2.4 1015656
20:00+10зюз8159197 3.3 1018811
2 октября, вс
вс223:00+10з7159096 0.1 1020627
02:00+10зюз7159246 0.1 1022591
05:00+10з6139371 0.1 1024585
08:00+9зюз5119578 0.1 1025447
11:00+13зюз587834 0.1 1024748
14:00+16з796196 0.2 10231621
17:00+16зюз4867100 0.0 1021929
20:00+11юз388813 0.0 1021146
3 октября, пн
пн323:00+12зюз61491100 1.1 1020480
02:00+13зюз91790100 3.1 10191145
05:00+8зсз3495100 0.0 102574
08:00+8зсз249369 0.0 1024120
11:00+12зсз357919 0.0 1024556
14:00+13сз567230 0.3 1024787
17:00+13сз586858 0.1 1024692
20:00+10с387944 0.2 1026283